• In Moldova, Republic
  • List of Countries
  • For 7 days
  • Water Temperature
  • Satellite Maps
  • Weather Map
  • Weather Widgets
  • user-avatar
    Login

    Hourly Weather Mingachevir

    Today, 21 January, Saturday

    Time Temperature Precipitation Wind Pressure Humidity
    00:00 0°C° 0 mm 0 mps 760 mmHg 91%
    01:00 +1°C° 0 mm 1 mps 759 mmHg 90%
    02:00 +1°C° 0 mm 1 mps 759 mmHg 88%
    03:00 +1°C° 0 mm 2 mps 759 mmHg 83%
    04:00 -1°C° 0 mm 2 mps 759 mmHg 82%
    05:00 -1°C° 0 mm 2 mps 759 mmHg 81%
    06:00 -1°C° 0 mm 2 mps 759 mmHg 80%
    07:00 +2°C° 0 mm 1 mps 759 mmHg 74%
    08:00 +4°C° 0 mm 1 mps 759 mmHg 67%
    09:00 +5°C° 0 mm 1 mps 759 mmHg 59%
    10:00 +6°C° 0 mm 1 mps 758 mmHg 56%
    11:00 +7°C° 0 mm 1 mps 758 mmHg 53%
    12:00 +7°C° 0 mm 2 mps 758 mmHg 49%
    13:00 +7°C° 0 mm 2 mps 758 mmHg 49%
    14:00 +7°C° 0 mm 2 mps 757 mmHg 49%
    15:00 +7°C° 0 mm 2 mps 757 mmHg 48%
    16:00 +7°C° 0 mm 1 mps 757 mmHg 54%
    17:00 +5°C° 0 mm 1 mps 758 mmHg 61%
    18:00 +3°C° 0 mm 1 mps 758 mmHg 67%
    19:00 +3°C° 0 mm 1 mps 758 mmHg 68%
    20:00 +3°C° 0 mm 1 mps 758 mmHg 68%
    21:00 +3°C° 0 mm 1 mps 758 mmHg 69%
    22:00 +2°C° 0 mm 1 mps 758 mmHg 68%
    23:00 +1°C° 0 mm 2 mps 758 mmHg 67%

    Tomorrow, 22 January, Sunday

    Time Temperature Precipitation Wind Pressure Humidity
    00:00 +1°C° 0 mm 2 mps 758 mmHg 67%
    01:00 0°C° 0 mm 3 mps 758 mmHg 66%
    02:00 0°C° 0 mm 3 mps 758 mmHg 65%
    03:00 0°C° 0 mm 3 mps 758 mmHg 64%
    04:00 -1°C° 0 mm 4 mps 758 mmHg 63%
    05:00 -2°C° 0 mm 4 mps 758 mmHg 61%
    06:00 -2°C° 0 mm 4 mps 758 mmHg 60%
    07:00 -1°C° 0 mm 4 mps 758 mmHg 56%
    08:00 0°C° 0 mm 4 mps 758 mmHg 52%
    09:00 +1°C° 0 mm 5 mps 758 mmHg 48%
    10:00 +3°C° 0 mm 5 mps 757 mmHg 44%
    11:00 +5°C° 0 mm 5 mps 757 mmHg 40%
    12:00 +6°C° 0 mm 5 mps 757 mmHg 36%
    13:00 +7°C° 0 mm 5 mps 757 mmHg 35%
    14:00 +7°C° 0 mm 5 mps 757 mmHg 35%
    15:00 +7°C° 0 mm 5 mps 757 mmHg 35%
    16:00 +6°C° 0 mm 4 mps 758 mmHg 41%
    17:00 +4°C° 0 mm 3 mps 759 mmHg 47%
    18:00 +4°C° 0 mm 2 mps 760 mmHg 53%
    19:00 +3°C° 0 mm 2 mps 761 mmHg 55%
    20:00 +4°C° 0 mm 1 mps 761 mmHg 57%
    21:00 +4°C° 0 mm 1 mps 762 mmHg 59%
    22:00 +3°C° 0 mm 2 mps 762 mmHg 61%
    23:00 +3°C° 0 mm 2 mps 763 mmHg 63%

    Day after tomorrow, 23 January, Monday

    Time Temperature Precipitation Wind Pressure Humidity
    00:00 +2°C° 0 mm 2 mps 764 mmHg 65%
    01:00 +2°C° 0 mm 2 mps 764 mmHg 70%
    02:00 +1°C° 0 mm 2 mps 764 mmHg 74%
    03:00 +1°C° 0 mm 2 mps 764 mmHg 79%
    04:00 -1°C° 0 mm 2 mps 764 mmHg 81%
    05:00 -1°C° 0 mm 2 mps 764 mmHg 83%
    06:00 0°C° 0 mm 1 mps 764 mmHg 85%
    07:00 +1°C° 0 mm 1 mps 764 mmHg 81%
    08:00 +2°C° 0 mm 1 mps 765 mmHg 77%
    09:00 +3°C° 0 mm 1 mps 765 mmHg 72%
    10:00 +4°C° 0 mm 1 mps 764 mmHg 66%
    11:00 +4°C° 0 mm 2 mps 764 mmHg 60%
    12:00 +6°C° 0 mm 2 mps 763 mmHg 54%
    13:00 +6°C° 0 mm 2 mps 763 mmHg 52%
    14:00 +7°C° 0 mm 2 mps 763 mmHg 50%
    15:00 +7°C° 0 mm 2 mps 762 mmHg 48%
    16:00 +5°C° 0 mm 2 mps 763 mmHg 54%
    17:00 +5°C° 0 mm 1 mps 763 mmHg 61%
    18:00 +3°C° 0 mm 1 mps 764 mmHg 67%
    19:00 +3°C° 0 mm 1 mps 764 mmHg 67%
    20:00 +3°C° 0 mm 1 mps 764 mmHg 67%
    21:00 +3°C° 0 mm 1 mps 764 mmHg 68%
    22:00 +3°C° 0 mm 1 mps 764 mmHg 69%
    23:00 +2°C° 0 mm 1 mps 765 mmHg 71%

    24 January, Tuesday

    Time Temperature Precipitation Wind Pressure Humidity
    00:00 +2°C° 0 mm 1 mps 765 mmHg 72%
    01:00 +2°C° 0 mm 1 mps 765 mmHg 75%
    02:00 +1°C° 0 mm 1 mps 765 mmHg 77%
    03:00 +1°C° 0 mm 1 mps 765 mmHg 79%
    04:00 0°C° 0 mm 1 mps 765 mmHg 80%
    05:00 0°C° 0 mm 1 mps 765 mmHg 81%
    06:00 -1°C° 0 mm 0 mps 765 mmHg 82%
    07:00 +1°C° 0 mm 0 mps 765 mmHg 75%
    08:00 +2°C° 0 mm 0 mps 765 mmHg 68%
    09:00 +4°C° 0 mm 0 mps 765 mmHg 61%
    10:00 +6°C° 0 mm 1 mps 764 mmHg 57%
    11:00 +7°C° 0 mm 1 mps 763 mmHg 53%
    12:00 +8°C° 0 mm 1 mps 762 mmHg 49%
    13:00 +8°C° 0 mm 1 mps 762 mmHg 48%
    14:00 +9°C° 0 mm 1 mps 761 mmHg 47%
    15:00 +9°C° 0 mm 1 mps 760 mmHg 46%
    16:00 +7°C° 0 mm 1 mps 761 mmHg 53%
    17:00 +5°C° 0 mm 1 mps 761 mmHg 60%
    18:00 +4°C° 0 mm 1 mps 761 mmHg 66%
    19:00 +3°C° 0 mm 1 mps 761 mmHg 67%
    20:00 +3°C° 0 mm 1 mps 760 mmHg 67%
    21:00 +3°C° 0 mm 1 mps 760 mmHg 67%
    22:00 +2°C° 0 mm 1 mps 760 mmHg 66%
    23:00 +2°C° 0 mm 1 mps 759 mmHg 64%

    25 January, Wednesday

    Time Temperature Precipitation Wind Pressure Humidity
    00:00 +2°C° 0 mm 1 mps 759 mmHg 62%
    01:00 +1°C° 0 mm 2 mps 758 mmHg 60%
    02:00 +1°C° 0 mm 2 mps 758 mmHg 58%
    03:00 0°C° 0 mm 3 mps 757 mmHg 55%
    04:00 0°C° 0 mm 3 mps 756 mmHg 54%
    05:00 0°C° 0 mm 3 mps 756 mmHg 53%
    06:00 0°C° 0 mm 3 mps 756 mmHg 51%
    07:00 +2°C° 0 mm 3 mps 755 mmHg 47%
    08:00 +3°C° 0 mm 3 mps 755 mmHg 43%
    09:00 +5°C° 0 mm 3 mps 755 mmHg 40%
    10:00 +7°C° 0 mm 3 mps 754 mmHg 36%
    11:00 +9°C° 0 mm 3 mps 753 mmHg 32%
    12:00 +11°C° 0 mm 4 mps 752 mmHg 28%
    13:00 +11°C° 0 mm 4 mps 752 mmHg 27%
    14:00 +11°C° 0 mm 4 mps 751 mmHg 27%
    15:00 +11°C° 0 mm 4 mps 751 mmHg 26%
    16:00 +10°C° 0 mm 3 mps 751 mmHg 30%
    17:00 +8°C° 0 mm 3 mps 751 mmHg 33%
    18:00 +7°C° 0 mm 3 mps 751 mmHg 37%
    19:00 +7°C° 0 mm 3 mps 751 mmHg 39%
    20:00 +5°C° 0 mm 3 mps 750 mmHg 41%
    21:00 +5°C° 0 mm 3 mps 750 mmHg 43%
    22:00 +5°C° 0 mm 3 mps 750 mmHg 45%
    23:00 +5°C° 0 mm 3 mps 750 mmHg 47%

    26 January, Thursday

    Time Temperature Precipitation Wind Pressure Humidity
    00:00 +4°C° 0 mm 3 mps 749 mmHg 49%
    01:00 +4°C° 0 mm 4 mps 749 mmHg 49%
    02:00 +4°C° 0 mm 4 mps 749 mmHg 50%
    03:00 +5°C° 0 mm 4 mps 749 mmHg 51%
    04:00 +5°C° 0 mm 4 mps 749 mmHg 52%
    05:00 +4°C° 0 mm 4 mps 749 mmHg 53%
    06:00 +4°C° 0 mm 4 mps 749 mmHg 55%
    07:00 +5°C° 0 mm 4 mps 749 mmHg 52%
    08:00 +6°C° 0 mm 4 mps 749 mmHg 49%
    09:00 +7°C° 0 mm 5 mps 749 mmHg 47%
    10:00 +8°C° 0 mm 5 mps 749 mmHg 44%
    11:00 +9°C° 0 mm 6 mps 748 mmHg 41%
    12:00 +11°C° 0 mm 6 mps 748 mmHg 38%
    13:00 +11°C° 0 mm 6 mps 748 mmHg 38%
    14:00 +11°C° 0 mm 6 mps 748 mmHg 39%
    15:00 +11°C° 0 mm 6 mps 748 mmHg 40%
    16:00 +9°C° 0 mm 6 mps 749 mmHg 44%
    17:00 +8°C° 0 mm 5 mps 749 mmHg 47%
    18:00 +6°C° 0 mm 4 mps 750 mmHg 51%
    19:00 +6°C° 0 mm 4 mps 751 mmHg 54%
    20:00 +6°C° 0 mm 4 mps 751 mmHg 56%
    21:00 +5°C° 0 mm 3 mps 752 mmHg 58%
    22:00 +5°C° 0.2 mm 3 mps 752 mmHg 60%
    23:00 +5°C° 0.2 mm 2 mps 752 mmHg 62%
    Show more